TimeCDT,TemperatureF,Dew PointF,Humidity,Sea Level PressureIn,VisibilityMPH,Wind Direction,Wind SpeedMPH,Gust SpeedMPH,PrecipitationIn,Events,Conditions,WindDirDegrees,DateUTC
12:15 AM,81.1,58.3,46,29.72,10.0,SSE,18.4,24.2,N/A,,Clear,160,2013-06-23 05:15:00
12:35 AM,81.1,59.4,47,29.72,10.0,SSE,19.6,26.5,N/A,,Clear,160,2013-06-23 05:35:00
12:55 AM,81.1,60.3,49,29.76,10.0,SSW,11.5,27.6,N/A,,Clear,200,2013-06-23 05:55:00
1:15 AM,78.1,59.5,53,29.80,10.0,North,8.1,-,N/A,,Mostly Cloudy,350,2013-06-23 06:15:00
1:35 AM,77.4,58.8,53,29.87,10.0,WNW,23.0,32.2,N/A,Thunderstorm,Thunderstorm,300,2013-06-23 06:35:00
1:55 AM,70.3,57.4,63,29.89,10.0,WNW,15.0,38.0,0.02,Rain-Thunderstorm,Thunderstorms and Rain,290,2013-06-23 06:55:00
2:15 AM,65.5,60.8,85,29.83,10.0,NE,15.0,21.9,0.02,Thunderstorm,Overcast,50,2013-06-23 07:15:00
2:35 AM,64.8,60.8,87,29.83,10.0,NE,8.1,-,0.02,,Overcast,40,2013-06-23 07:35:00
2:55 AM,64.6,61.0,88,29.87,10.0,North,13.8,-,0.02,,Overcast,360,2013-06-23 07:55:00
3:15 AM,64.4,60.6,88,29.92,10.0,NW,11.5,17.3,N/A,,Overcast,320,2013-06-23 08:15:00
3:35 AM,64.4,60.8,88,29.93,10.0,NNW,8.1,-,N/A,Rain,Light Rain,340,2013-06-23 08:35:00
3:55 AM,63.9,60.4,89,29.93,10.0,NNE,10.4,-,0.01,Rain-Thunderstorm,Light Thunderstorms and Rain,20,2013-06-23 08:55:00
4:15 AM,63.5,60.8,91,29.89,7.0,ENE,15.0,-,0.04,Rain-Thunderstorm,Light Thunderstorms and Rain,70,2013-06-23 09:15:00
4:35 AM,62.8,60.3,91,29.84,10.0,East,19.6,25.3,0.05,,Scattered Clouds,80,2013-06-23 09:35:00
4:55 AM,62.1,59.9,93,29.84,10.0,East,19.6,23.0,0.05,,Clear,80,2013-06-23 09:55:00
5:15 AM,61.9,59.7,93,29.84,10.0,East,17.3,24.2,N/A,Thunderstorm,Clear,90,2013-06-23 10:15:00
5:35 AM,62.1,59.4,91,29.83,10.0,East,16.1,-,N/A,,Clear,100,2013-06-23 10:35:00
5:55 AM,61.9,59.5,92,29.83,10.0,ESE,20.7,26.5,N/A,,Clear,110,2013-06-23 10:55:00
6:15 AM,61.7,59.5,93,29.83,10.0,ESE,15.0,-,N/A,,Clear,110,2013-06-23 11:15:00
6:35 AM,61.7,59.5,93,29.83,10.0,ESE,10.4,-,N/A,,Clear,110,2013-06-23 11:35:00
6:55 AM,61.9,59.5,92,29.84,10.0,ESE,9.2,-,N/A,,Scattered Clouds,110,2013-06-23 11:55:00
7:15 AM,62.1,59.5,91,29.85,10.0,East,10.4,-,N/A,,Scattered Clouds,100,2013-06-23 12:15:00
7:35 AM,62.2,60.1,93,29.85,10.0,East,6.9,-,N/A,,Clear,100,2013-06-23 12:35:00
7:55 AM,62.8,60.6,93,29.85,10.0,ESE,6.9,-,N/A,,Clear,120,2013-06-23 12:55:00
8:15 AM,63.5,60.6,90,29.86,10.0,East,4.6,-,N/A,,Clear,90,2013-06-23 13:15:00
8:35 AM,64.4,61.0,89,29.87,10.0,East,5.8,-,N/A,,Clear,100,2013-06-23 13:35:00
8:55 AM,65.3,61.0,86,29.90,10.0,Calm,Calm,-,N/A,,Clear,0,2013-06-23 13:55:00
9:15 AM,66.0,61.5,85,29.92,10.0,North,6.9,-,N/A,,Clear,10,2013-06-23 14:15:00
9:35 AM,66.6,61.9,85,29.93,10.0,NNE,9.2,-,N/A,,Scattered Clouds,20,2013-06-23 14:35:00
9:55 AM,66.9,61.9,84,29.93,10.0,NNE,6.9,-,N/A,,Scattered Clouds,30,2013-06-23 14:55:00
10:15 AM,68.0,61.7,80,29.93,10.0,NNE,6.9,-,N/A,,Scattered Clouds,30,2013-06-23 15:15:00
10:35 AM,68.5,61.7,79,29.93,10.0,ENE,10.4,-,N/A,,Scattered Clouds,60,2013-06-23 15:35:00
10:55 AM,69.4,61.5,76,29.92,10.0,ENE,6.9,-,N/A,,Scattered Clouds,60,2013-06-23 15:55:00
11:15 AM,70.7,62.8,76,29.92,10.0,ENE,8.1,-,N/A,,Scattered Clouds,60,2013-06-23 16:15:00
11:35 AM,71.6,62.6,73,29.92,10.0,ENE,8.1,-,N/A,,Scattered Clouds,70,2013-06-23 16:35:00
11:55 AM,71.8,62.2,72,29.92,10.0,East,6.9,-,N/A,,Mostly Cloudy,100,2013-06-23 16:55:00
12:15 PM,72.7,63.3,72,29.93,10.0,ENE,5.8,-,N/A,,Overcast,70,2013-06-23 17:15:00
12:35 PM,73.2,63.3,71,29.93,10.0,ENE,8.1,-,N/A,,Overcast,70,2013-06-23 17:35:00
12:55 PM,73.8,63.9,71,29.93,10.0,ENE,4.6,-,N/A,,Overcast,60,2013-06-23 17:55:00
1:15 PM,74.5,63.9,69,29.93,10.0,East,8.1,-,N/A,,Overcast,100,2013-06-23 18:15:00
1:35 PM,75.2,64.2,69,29.93,10.0,East,8.1,-,N/A,,Overcast,80,2013-06-23 18:35:00
1:55 PM,75.4,64.2,68,29.93,10.0,East,6.9,-,N/A,,Overcast,80,2013-06-23 18:55:00
2:15 PM,75.7,64.2,67,29.92,10.0,ESE,6.9,-,N/A,,Overcast,110,2013-06-23 19:15:00
2:35 PM,76.3,64.8,67,29.91,10.0,East,5.8,-,N/A,,Overcast,80,2013-06-23 19:35:00
2:55 PM,76.6,64.4,66,29.91,10.0,North,3.5,-,N/A,,Mostly Cloudy,360,2013-06-23 19:55:00
3:15 PM,77.2,64.2,64,29.90,10.0,Calm,Calm,-,N/A,,Scattered Clouds,0,2013-06-23 20:15:00
3:35 PM,77.0,64.4,65,29.90,4.0,North,3.5,-,N/A,,Haze,10,2013-06-23 20:35:00
3:55 PM,78.1,64.8,63,29.89,10.0,NNE,4.6,-,N/A,,Scattered Clouds,20,2013-06-23 20:55:00
4:15 PM,78.1,64.2,62,29.89,0.8,Calm,Calm,-,N/A,,Haze,0,2013-06-23 21:15:00
4:35 PM,79.7,65.8,62,29.88,10.0,NNE,5.8,-,N/A,,Clear,30,2013-06-23 21:35:00
4:55 PM,80.1,65.3,61,29.87,10.0,NE,4.6,-,N/A,,Scattered Clouds,40,2013-06-23 21:55:00
5:15 PM,79.9,65.8,62,29.87,10.0,ENE,3.5,-,N/A,,Scattered Clouds,60,2013-06-23 22:15:00
5:35 PM,79.9,65.5,61,29.87,10.0,ENE,9.2,-,N/A,,Scattered Clouds,70,2013-06-23 22:35:00
5:55 PM,80.1,65.8,62,29.87,10.0,ENE,10.4,-,N/A,,Clear,70,2013-06-23 22:55:00
6:15 PM,80.2,65.7,61,29.86,10.0,ENE,10.4,-,N/A,,Clear,70,2013-06-23 23:15:00
6:35 PM,80.1,66.0,62,29.86,10.0,ENE,9.2,-,N/A,,Clear,60,2013-06-23 23:35:00
6:55 PM,79.9,66.2,63,29.86,10.0,ENE,9.2,-,N/A,,Clear,60,2013-06-23 23:55:00
7:15 PM,79.7,66.7,64,29.86,10.0,ENE,10.4,-,N/A,,Clear,60,2013-06-24 00:15:00
7:35 PM,79.2,67.1,66,29.86,10.0,ENE,10.4,-,N/A,,Clear,60,2013-06-24 00:35:00
7:55 PM,78.4,67.1,68,29.86,10.0,ENE,11.5,-,N/A,,Clear,60,2013-06-24 00:55:00
8:15 PM,77.4,67.3,71,29.86,10.0,ENE,11.5,-,N/A,,Clear,60,2013-06-24 01:15:00
8:35 PM,76.5,67.5,74,29.86,10.0,ENE,9.2,-,N/A,,Clear,60,2013-06-24 01:35:00
8:55 PM,75.4,68.0,78,29.86,10.0,ENE,8.1,-,N/A,,Clear,60,2013-06-24 01:55:00
9:15 PM,74.5,68.2,81,29.86,10.0,ENE,12.7,-,N/A,,Clear,70,2013-06-24 02:15:00
9:35 PM,73.8,68.4,83,29.86,10.0,ENE,10.4,-,N/A,,Clear,70,2013-06-24 02:35:00
9:55 PM,73.4,68.5,85,29.86,10.0,ENE,9.2,-,N/A,,Clear,70,2013-06-24 02:55:00
10:15 PM,72.7,68.5,87,29.87,10.0,East,9.2,-,N/A,,Clear,80,2013-06-24 03:15:00
10:35 PM,72.1,68.5,88,29.87,10.0,ENE,9.2,-,N/A,,Clear,70,2013-06-24 03:35:00
10:55 PM,72.1,68.5,88,29.87,10.0,East,11.5,-,N/A,,Clear,90,2013-06-24 03:55:00
11:15 PM,72.1,68.4,88,29.87,10.0,East,13.8,19.6,N/A,,Clear,90,2013-06-24 04:15:00
11:35 PM,72.3,68.4,87,29.86,10.0,East,16.1,20.7,N/A,,Clear,100,2013-06-24 04:35:00
11:55 PM,72.0,68.4,88,29.87,10.0,East,12.7,19.6,N/A,,Clear,90,2013-06-24 04:55:00